Location: Pedholt
(56.0260°N, 10.2097°E)
Time: 01:57:53
(UTC+00:00)

A-11 Canister half - Pass Details

Date: 31 July 2021
Orbit: 1514 x 1685 km, 47.2° (Epoch: 16 September)

Event Time Altitude Azimuth Distance (km) Brightness Sun altitude
Rises 21:20:46 0° 276° (W) 4,892 12.2 -11.4°
Reaches altitude 10° 21:24:07 10° 270° (W) 3,921 11.5 -11.6°
Maximum altitude 21:33:13 41° 205° (SSW) 2,293 9.6 -12.2°
Enters shadow 21:41:00 15° 144° (SE) 3,562 10.3 -12.7°
Drops below altitude 10° 21:42:24 10° 140° (SE) 3,942 - -12.8°
Sets 21:45:47 0° 134° (SE) 4,921 - -13.0°
